Back to catalog

COSMOS 1275 DEB

LostPO
NORAD 42121·DEBRIS·🇷🇺 Russia

Launched Jun 4, 1981 from Plesetsk Cosmodrome

Loading…

Next Passes (next 24 hours)

TLE

StaleSource: Space-Track

Epoch: Feb 10, 2024, 18:25 UTC

1 42121U 81053QH  24041.76774431  .00005072  00000-0  30011-2 0  9998
2 42121  82.9208 200.8586 0043568  35.0254 325.3772 14.07045780963525

Track COSMOS 1275 DEB in real time with AllMySat

Download on the App Store